K1DRD Weather Reports


Display with metric or nautical units.
time (UTC)temp
F
wind
direction
speed
MPH
gust
MPH
rain 1hr
in
rain 24hr
in
rain mn
in
humidity
%
barometer
mb
20260503013003 49 146 0.0 2.0 0.00 0.06 0.06 85 1010.9
20260503012503 49 146 0.0 2.0 0.00 0.06 0.06 85 1010.9
20260503012002 49 146 0.0 1.0 0.00 0.06 0.06 85 1010.8
20260503011509 49 146 0.0 0.0 0.00 0.06 0.06 85 1010.7
20260503011004 49 146 0.0 0.0 0.00 0.06 0.06 85 1010.6
20260503010503 49 146 0.0 0.0 0.00 0.06 0.06 85 1010.2
20260503010013 48 146 0.0 0.0 0.00 0.06 0.06 85 1010.2
20260503005503 48 146 0.0 0.0 0.00 0.06 0.06 85 1010.1
20260503005004 48 146 0.0 0.0 0.00 0.06 0.06 85 1010.1
20260503004517 49 146 0.0 0.0 0.00 0.06 0.06 84 1010.0
20260503004009 49 146 0.0 0.0 0.00 0.06 0.06 84 1010.0
20260503003504 49 146 0.0 0.0 0.00 0.06 0.06 84 1010.1
20260503003021 49 146 0.0 0.0 0.00 0.06 0.06 84 1010.0
20260503002508 49 146 0.0 0.0 0.00 0.06 0.06 84 1010.1
20260503002008 49 146 0.0 0.0 0.00 0.06 0.06 84 1010.1
20260503001502 49 146 0.0 0.0 0.00 0.06 0.06 83 1010.1
20260503001005 49 146 0.0 0.0 0.00 0.06 0.06 83 1010.0
20260503000503 49 146 0.0 2.0 0.00 0.06 0.06 83 1009.9
20260503000009 49 146 0.0 2.0 0.00 0.06 0.06 83 1009.9
20260502235503 49 141 0.0 2.0 0.00 0.06 0.06 83 1010.0
20260502235003 49 118 0.0 2.0 0.00 0.06 0.06 83 1010.0
20260502234513 50 165 0.0 2.0 0.00 0.06 0.06 83 1010.0
20260502234006 50 165 0.0 2.0 0.00 0.06 0.06 82 1009.9
20260502233506 50 169 0.0 2.0 0.00 0.06 0.06 82 1009.8
20260502233016 50 163 0.0 2.0 0.00 0.06 0.06 82 1009.9
20260502232507 50 158 0.0 0.0 0.00 0.06 0.06 81 1009.9
20260502232005 50 158 0.0 2.0 0.00 0.06 0.06 81 1009.9
20260502231523 50 158 0.0 2.0 0.00 0.06 0.06 81 1009.9
20260502231008 50 194 0.0 2.0 0.00 0.06 0.06 80 1009.9
20260502230503 50 299 0.0 2.0 0.00 0.06 0.06 80 1009.9
20260502230008 50 299 0.0 2.0 0.00 0.06 0.06 80 1009.9
20260502225503 50 299 0.0 2.0 0.00 0.06 0.06 80 1009.9
20260502225003 51 299 0.0 1.0 0.00 0.06 0.06 81 1009.9
20260502224513 50 299 0.0 1.0 0.00 0.06 0.06 81 1009.8
20260502224004 50 299 0.0 0.0 0.00 0.06 0.06 81 1009.8
20260502223506 50 299 0.0 2.0 0.00 0.06 0.06 81 1009.7
20260502223016 51 300 0.0 2.0 0.00 0.06 0.06 81 1009.8
20260502222507 51 299 0.0 1.0 0.00 0.06 0.06 81 1009.8
20260502222005 51 299 0.0 0.0 0.00 0.06 0.06 80 1009.8
20260502221524 51 299 0.0 0.0 0.00 0.06 0.06 81 1009.9
20260502221006 51 299 0.0 1.0 0.00 0.06 0.06 80 1009.9
20260502220507 51 299 0.0 2.0 0.00 0.06 0.06 80 1009.9
20260502220026 50 299 0.0 2.0 0.00 0.06 0.06 79 1009.9
20260502215508 50 299 0.0 2.0 0.00 0.06 0.06 82 1009.9
20260502215003 51 300 0.0 2.0 0.00 0.06 0.06 81 1009.9
20260502214509 51 300 0.0 2.0 0.00 0.06 0.06 79 1010.0
20260502214004 51 300 1.0 2.0 0.00 0.06 0.06 79 1010.0
20260502213503 51 305 1.0 2.0 0.00 0.06 0.06 78 1009.9
20260502213011 51 281 1.0 2.0 0.00 0.06 0.06 77 1010.0
20260502212503 52 266 1.0 2.0 0.00 0.06 0.06 76 1010.0
20260502212007 52 255 1.0 4.0 0.00 0.06 0.06 75 1010.0
20260502211518 52 266 1.0 4.0 0.00 0.06 0.06 74 1009.9
20260502211008 52 276 3.0 7.0 0.00 0.06 0.06 73 1009.9
20260502210508 53 294 3.0 7.0 0.00 0.06 0.06 71 1009.8
20260502210024 54 291 3.0 7.0 0.00 0.06 0.06 67 1009.8
20260502205509 54 248 2.0 5.0 0.00 0.06 0.06 65 1009.7
20260502205008 54 27 1.0 5.0 0.00 0.06 0.06 64 1009.6
20260502204525 55 257 2.0 5.0 0.00 0.06 0.06 64 1009.7
20260502204009 55 169 2.0 5.0 0.00 0.06 0.06 62 1009.5
20260502203503 56 278 1.0 5.0 0.00 0.06 0.06 62 1009.6
20260502203012 56 248 1.0 5.0 0.00 0.06 0.06 61 1009.5
20260502202503 56 86 2.0 5.0 0.00 0.06 0.06 60 1009.6
20260502202003 56 242 1.0 5.0 0.00 0.06 0.06 60 1009.7
20260502201516 56 102 1.0 6.0 0.00 0.06 0.06 59 1009.7
20260502201003 56 231 1.0 6.0 0.00 0.06 0.06 58 1009.7
20260502200512 56 243 2.0 6.0 0.00 0.06 0.06 58 1009.8
20260502200021 56 193 2.0 6.0 0.00 0.06 0.06 57 1009.7
20260502195508 56 231 2.0 8.0 0.00 0.06 0.06 55 1009.8
20260502195007 56 84 1.0 8.0 0.00 0.06 0.06 57 1009.7
20260502194522 56 300 2.0 8.0 0.00 0.06 0.06 56 1009.8
20260502194007 56 266 2.0 6.0 0.00 0.06 0.06 55 1009.8
20260502193513 56 158 2.0 5.0 0.00 0.06 0.06 57 1010.0
20260502193028 56 286 1.0 4.0 0.00 0.06 0.06 60 1010.1
20260502192503 55 274 2.0 6.0 0.00 0.06 0.06 61 1010.1
20260502192007 55 325 1.0 6.0 0.00 0.06 0.06 63 1010.3
20260502191513 56 242 1.0 6.0 0.00 0.06 0.06 64 1010.3
20260502191005 56 96 1.0 7.0 0.00 0.06 0.06 66 1010.5
20260502190509 55 85 2.0 7.0 0.00 0.06 0.06 68 1010.4
20260502190024 55 63 2.0 7.0 0.00 0.06 0.06 67 1010.6
20260502185505 54 252 1.0 6.0 0.00 0.06 0.06 68 1010.4
20260502185007 54 94 2.0 6.0 0.00 0.06 0.06 69 1010.6
20260502184523 54 237 1.0 5.0 0.00 0.06 0.06 68 1010.6
20260502184009 54 58 2.0 6.0 0.00 0.06 0.06 67 1010.7
20260502183508 54 92 1.0 6.0 0.00 0.06 0.06 67 1010.7
20260502183026 55 192 1.0 6.0 0.00 0.06 0.06 68 1010.6
20260502182509 55 340 2.0 8.0 0.00 0.06 0.06 67 1010.4
20260502182010 55 250 1.0 8.0 0.00 0.06 0.06 67 1010.6
20260502181526 55 262 1.0 6.0 0.00 0.06 0.06 67 1010.6
20260502181004 54 243 3.0 6.0 0.00 0.06 0.06 66 1010.7
20260502180504 54 125 2.0 7.0 0.00 0.06 0.06 63 1010.7
20260502170507 55 68 1.0 3.0 0.00 0.06 0.06 63 1011.1
20260502164004 55 304 0.0 3.0 0.00 0.06 0.06 63 1011.3
20260502163504 55 209 1.0 3.0 0.00 0.06 0.06 65 1011.2
20260502163034 55 302 1.0 3.0 0.00 0.06 0.06 70 1011.2
20260502162505 55 347 0.0 2.0 0.00 0.06 0.06 70 1011.2
20260502162010 54 18 0.0 2.0 0.00 0.06 0.06 70 1011.2
20260502161507 54 239 1.0 3.0 0.00 0.06 0.06 69 1011.2
20260502161003 54 174 1.0 6.0 0.00 0.06 0.06 71 1011.3
20260502160503 54 288 0.0 6.0 0.00 0.06 0.06 72 1011.5
20260502152011 52 314 1.0 3.0 0.00 0.06 0.06 79 1012.0
20260502151527 53 338 1.0 3.0 0.00 0.06 0.06 79 1012.2
20260502151006 52 195 0.0 2.0 0.00 0.06 0.06 82 1012.0
20260502150510 52 192 0.0 2.0 0.00 0.06 0.06 81 1011.8
20260502130506 47 322 0.0 2.0 0.01 0.01 0.01 81 1013.0
20260502123507 48 300 2.0 3.0 0.00 0.00 0.00 83 1013.0
20260502123013 48 285 1.0 3.0 0.00 0.00 0.00 83 1013.0
20260502122507 48 288 2.0 3.0 0.00 0.00 0.00 84 1012.8
20260502122012 49 281 1.0 2.0 0.00 0.00 0.00 84 1012.6
20260502121516 48 274 1.0 3.0 0.00 0.00 0.00 83 1012.3
20260502121007 49 311 1.0 3.0 0.00 0.00 0.00 82 1012.1
20260502120507 49 286 2.0 3.0 0.00 0.00 0.00 81 1012.3
20260502115513 49 272 1.0 2.0 0.00 0.00 0.00 80 1011.9
20260502115011 49 294 1.0 2.0 0.00 0.00 0.00 81 1011.8
20260502114526 48 283 0.0 2.0 0.00 0.00 0.00 81 1011.9
20260502114007 48 286 0.0 2.0 0.00 0.00 0.00 82 1012.1
20260502113507 48 299 0.0 2.0 0.00 0.00 0.00 82 1012.0
20260502113028 48 195 0.0 2.0 0.00 0.00 0.00 82 1012.1
20260502112507 48 200 0.0 2.0 0.00 0.00 0.00 82 1012.2
20260502112007 48 260 1.0 2.0 0.00 0.00 0.00 82 1012.2
20260502111515 48 136 0.0 2.0 0.00 0.00 0.00 82 1011.9
20260502111006 47 136 0.0 2.0 0.00 0.00 0.00 82 1011.9
20260502110504 48 38 0.0 2.0 0.00 0.00 0.00 82 1011.8
20260502110018 48 38 0.0 2.0 0.00 0.00 0.00 81 1011.9
20260502105506 48 38 0.0 2.0 0.00 0.00 0.00 80 1011.7
20260502105008 48 171 0.0 2.0 0.00 0.00 0.00 79 1011.8
20260502104521 48 171 0.0 2.0 0.00 0.00 0.00 78 1011.7
20260502104008 48 171 0.0 2.0 0.00 0.00 0.00 78 1011.5
20260502103510 48 184 0.0 2.0 0.00 0.00 0.00 77 1011.7
20260502103031 48 184 0.0 3.0 0.00 0.00 0.00 77 1011.5
20260502102507 48 184 0.0 2.0 0.00 0.00 0.00 77 1011.5
20260502102021 48 125 0.0 2.0 0.00 0.00 0.00 78 1011.4
20260502101527 48 125 0.0 2.0 0.00 0.00 0.00 78 1011.4
20260502101015 48 116 0.0 2.0 0.00 0.00 0.00 78 1011.3
20260502100503 48 116 0.0 2.0 0.00 0.00 0.00 79 1011.2
20260502091527 48 78 0.0 2.0 0.00 0.00 0.00 79 1011.0
20260502091013 48 78 0.0 2.0 0.00 0.00 0.00 77 1011.0
20260502090506 48 78 0.0 2.0 0.00 0.00 0.00 76 1011.1
20260502071504 48 192 0.0 2.0 0.00 0.00 0.00 75 1011.3
20260502071003 48 145 0.0 2.0 0.00 0.00 0.00 74 1011.1
20260502070504 49 130 0.0 2.0 0.00 0.00 0.00 72 1011.1
20260502070008 49 130 0.0 2.0 0.00 0.00 0.00 69 1011.2
20260502065504 49 169 0.0 2.0 0.00 0.00 0.00 69 1011.5
20260502065007 49 157 0.0 2.0 0.00 0.00 0.00 69 1011.8
20260502064508 49 157 0.0 2.0 0.00 0.00 0.00 68 1011.8
20260502064003 49 80 0.0 2.0 0.00 0.00 0.00 68 1011.8
20260502063500 48 79 0.0 0.0 0.00 0.01 0.00 69 1011.6
20260502063007 48 79 0.0 0.0 0.00 0.01 0.00 69 1011.5
20260502062503 48 79 0.0 0.0 0.00 0.01 0.00 69 1011.3
20260502062001 48 79 0.0 0.0 0.00 0.02 0.00 69 1011.3
20260502061508 48 79 0.0 2.0 0.00 0.02 0.00 69 1011.3
20260502061004 47 79 0.0 2.0 0.00 0.02 0.00 69 1011.3
20260502060503 47 79 0.0 2.0 0.00 0.03 0.00 70 1011.4
20260502060005 47 79 0.0 2.0 0.00 0.03 0.00 69 1011.4
20260502055503 47 78 0.0 2.0 0.00 0.03 0.00 69 1011.3
20260502055004 47 78 0.0 2.0 0.00 0.03 0.00 70 1011.2
20260502054520 46 78 0.0 1.0 0.00 0.03 0.00 69 1011.4
20260502054004 46 78 0.0 0.0 0.00 0.03 0.00 69 1011.4
20260502053506 46 78 0.0 0.0 0.00 0.03 0.00 69 1011.5
20260502053009 46 78 0.0 0.0 0.00 0.03 0.00 70 1011.4
20260502052504 46 78 0.0 2.0 0.00 0.03 0.00 70 1011.4
20260502052004 46 78 0.0 2.0 0.00 0.03 0.00 69 1011.5
20260502051513 46 78 0.0 2.0 0.00 0.03 0.00 69 1011.5
20260502051003 46 78 0.0 2.0 0.00 0.03 0.00 70 1011.4
20260502050505 46 77 0.0 0.0 0.00 0.03 0.00 70 1011.4
20260502050022 46 77 0.0 0.0 0.00 0.03 0.00 69 1011.4
20260502045504 46 77 0.0 2.0 0.00 0.03 0.00 70 1011.5
20260502045002 47 77 0.0 2.0 0.00 0.03 0.00 68 1011.3
20260502044507 47 77 0.0 0.0 0.00 0.03 0.00 68 1011.4
20260502044004 47 77 0.0 1.0 0.00 0.03 0.00 67 1011.6
20260502043505 46 77 0.0 1.0 0.00 0.03 0.00 67 1011.7
20260502043010 46 77 0.0 0.0 0.00 0.03 0.00 66 1011.7
20260502042506 46 77 0.0 0.0 0.00 0.03 0.00 67 1011.7
20260502042004 46 77 0.0 0.0 0.00 0.03 0.00 66 1011.6
20260502041517 46 77 0.0 0.0 0.00 0.03 0.00 68 1011.6
20260502041003 47 77 0.0 0.0 0.00 0.03 0.00 67 1011.6
20260502040503 47 77 0.0 0.0 0.00 0.03 0.00 66 1011.6
20260502040013 47 77 0.0 0.0 0.00 0.03 0.00 66 1011.6
20260502035503 47 77 0.0 0.0 0.00 0.03 0.03 67 1011.6
20260502035006 47 77 0.0 2.0 0.00 0.03 0.03 68 1011.6
20260502034513 47 77 0.0 2.0 0.00 0.03 0.03 69 1011.6
20260502034005 47 77 0.0 0.0 0.00 0.03 0.03 69 1011.6
20260502033506 48 77 0.0 0.0 0.00 0.03 0.03 69 1011.7
20260502033017 48 75 0.0 0.0 0.00 0.03 0.03 69 1011.7
20260502032504 48 75 0.0 0.0 0.00 0.03 0.03 69 1011.6
20260502032006 48 75 0.0 2.0 0.00 0.03 0.03 69 1011.5
20260502031510 48 75 0.0 2.0 0.00 0.03 0.03 69 1011.5
20260502031003 48 230 0.0 1.0 0.00 0.03 0.03 69 1011.4
20260502030504 47 266 0.0 0.0 0.00 0.03 0.03 67 1011.1
20260502030022 48 266 0.0 0.0 0.00 0.03 0.03 66 1011.1
20260502025503 48 266 0.0 0.0 0.00 0.03 0.03 65 1011.1
20260502025003 48 266 0.0 0.0 0.00 0.03 0.03 65 1011.2
20260502024512 48 266 0.0 0.0 0.00 0.03 0.03 65 1011.1
20260502024003 48 266 0.0 0.0 0.00 0.03 0.03 65 1011.3
20260502023503 48 266 0.0 0.0 0.00 0.03 0.03 64 1011.3
20260502023009 48 266 0.0 0.0 0.00 0.03 0.03 64 1011.3
20260502022504 48 266 0.0 0.0 0.00 0.03 0.03 63 1011.3
20260502022003 48 266 0.0 0.0 0.00 0.03 0.03 62 1011.2
20260502021512 48 266 0.0 0.0 0.00 0.03 0.03 60 1011.2
20260502021003 48 266 0.0 0.0 0.00 0.03 0.03 61 1011.2
20260502020503 48 266 0.0 0.0 0.00 0.03 0.03 60 1011.3
20260502020014 48 266 0.0 0.0 0.00 0.03 0.03 59 1011.2
20260502015504 48 266 0.0 0.0 0.00 0.03 0.03 59 1011.2
20260502015004 49 266 0.0 0.0 0.00 0.03 0.03 58 1011.2
20260502014512 49 266 0.0 0.0 0.00 0.03 0.03 57 1011.2
20260502014004 49 266 0.0 0.0 0.00 0.03 0.03 57 1011.1
20260502013506 49 266 0.0 0.0 0.00 0.03 0.03 55 1011.0